Perryton, TX

7:23 AM CST on January 16, 2017 (GMT -0600)
Perryton Ochiltree County

Weather History for KPYX - March, 2013

Change the Weather History Date:

Monday, March 11, 2013

  Actual Average Record
Temperature  
Mean Temperature 43 °F -  
Max Temperature 66 °F 61 °F 95 °F (1989)
Min Temperature 20 °F 30 °F 10 °F (1969)
Degree Days  
Heating Degree Days 22    
Moisture  
Dew Point 21 °F    
Average Humidity 51    
Maximum Humidity 84    
Minimum Humidity 17    
Precipitation  
Precipitation 0.00 in - - ()
Sea Level Pressure  
Sea Level Pressure 29.98 in    
Wind  
Wind Speed 9 mph (WNW)    
Max Wind Speed 13 mph    
Max Gust Speed 21 mph    
Visibility 10 miles    
Events      
Averages and records for this station are not official NWS values.
T = Trace of Precipitation, MM = Missing Value Source: NWS Daily Summary

Daily Weather History Graph

Daily Weather History Graph

Search for Another Location

Airport or City:

Trip Planner

Search our weather history database for the weather conditions in past years. The results will help you decide how hot, cold, wet, or windy it might be!

Date:

Astronomy

Mar. 11, 2013 Rise Set
Actual Time 7:59 AM CDT 7:47 PM CDT
Civil Twilight 7:33 AM CDT 8:12 PM CDT
Nautical Twilight 7:03 AM CDT 8:42 PM CDT
Astronomical Twilight 6:33 AM CDT 9:12 PM CDT
Moon 7:34 AM CDT (3/11) 7:59 PM CDT (3/11)
Length of Visible Light 12h 39m
Length of Day
11h 47m
Waning Crescent, 0% of the Moon is Illuminated
Mar 11
Waning Crescent
Mar 11
New
Mar 19
First Quarter
Mar 27
Full
Apr 2
Last Quarter

Hourly Weather History & Observations

Time (CDT) Temp. Windchill Dew Point Humidity Pressure Visibility Wind Dir Wind Speed Gust Speed Precip Events Conditions
12:35 AM 23.9 °F 12.3 °F 15.6 °F 71% 30.08 in 10.0 mi NW 12.7 mph - N/A   Clear
12:55 AM 23.4 °F 12.2 °F 16.0 °F 73% 30.08 in 10.0 mi WNW 11.5 mph - N/A   Clear
1:15 AM 22.6 °F 11.3 °F 15.8 °F 75% 30.07 in 10.0 mi WNW 11.5 mph - N/A   Clear
1:35 AM 24.1 °F 12.5 °F 16.5 °F 73% 30.07 in 10.0 mi WNW 12.7 mph - N/A   Clear
1:55 AM 23.4 °F 12.8 °F 16.3 °F 75% 30.06 in 10.0 mi WNW 10.4 mph - N/A   Clear
2:15 AM 21.9 °F 11.7 °F 15.8 °F 77% 30.06 in 10.0 mi WNW 9.2 mph - N/A   Clear
2:35 AM 21.7 °F 10.8 °F 16.0 °F 78% 30.06 in 10.0 mi West 10.4 mph - N/A   Clear
2:55 AM 22.8 °F 11.5 °F 16.7 °F 77% 30.07 in 10.0 mi West 11.5 mph - N/A   Clear
3:15 AM 22.1 °F 10.6 °F 16.5 °F 79% 30.07 in 10.0 mi West 11.5 mph - N/A   Clear
3:35 AM 22.1 °F 10.6 °F 16.7 °F 80% 30.06 in 10.0 mi West 11.5 mph - N/A   Clear
3:55 AM 22.5 °F 11.1 °F 17.2 °F 80% 30.05 in 10.0 mi West 11.5 mph - N/A   Clear
4:15 AM 22.8 °F 12.2 °F 17.4 °F 80% 30.05 in 10.0 mi West 10.4 mph - N/A   Clear
4:35 AM 23.4 °F 13.5 °F 18.0 °F 80% 30.04 in 10.0 mi West 9.2 mph - N/A   Clear
4:55 AM 22.6 °F 12.6 °F 17.6 °F 81% 30.03 in 10.0 mi West 9.2 mph - N/A   Clear
5:15 AM 22.5 °F 12.4 °F 17.6 °F 82% 30.02 in 10.0 mi West 9.2 mph - N/A   Clear
5:35 AM 22.5 °F 12.4 °F 17.6 °F 82% 30.02 in 10.0 mi West 9.2 mph - N/A   Clear
5:55 AM 22.6 °F 13.4 °F 17.6 °F 81% 30.01 in 10.0 mi West 8.1 mph - N/A   Clear
6:15 AM 22.1 °F 12.0 °F 17.6 °F 83% 30.00 in 10.0 mi West 9.2 mph - N/A   Clear
6:35 AM 21.4 °F 11.9 °F 16.9 °F 83% 29.99 in 10.0 mi West 8.1 mph - N/A   Clear
6:55 AM 21.2 °F 12.6 °F 17.1 °F 84% 30.00 in 10.0 mi West 6.9 mph - N/A   Clear
7:15 AM 21.2 °F 14.9 °F 17.1 °F 84% 30.00 in 10.0 mi West 4.6 mph - N/A   Clear
7:35 AM 20.8 °F 16.0 °F 16.7 °F 84% 30.00 in 10.0 mi West 3.5 mph - N/A   Clear
7:55 AM 22.6 °F 15.3 °F 17.2 °F 80% 30.00 in 10.0 mi West 5.8 mph - N/A   Clear
8:15 AM 20.3 °F 12.5 °F 16.0 °F 83% 29.99 in 10.0 mi SW 5.8 mph - N/A   Clear
8:35 AM 23.7 °F 17.8 °F 19.4 °F 84% 29.99 in 10.0 mi WSW 4.6 mph - N/A   Clear
8:55 AM 28.4 °F 22.2 °F 21.9 °F 77% 29.99 in 10.0 mi WSW 5.8 mph - N/A   Clear
9:15 AM 31.8 °F 25.4 °F 22.6 °F 69% 29.99 in 10.0 mi WSW 6.9 mph - N/A   Clear
9:35 AM 34.5 °F 29.4 °F 23.4 °F 64% 30.00 in 10.0 mi WSW 5.8 mph - N/A   Clear
9:55 AM 37.6 °F 34.0 °F 23.9 °F 58% 30.00 in 10.0 mi WSW 4.6 mph - N/A   Clear
10:15 AM 39.9 °F 35.1 °F 25.7 °F 57% 30.01 in 10.0 mi West 6.9 mph - N/A   Clear
10:35 AM 41.7 °F 37.3 °F 26.1 °F 54% 30.01 in 10.0 mi West 6.9 mph - N/A   Clear
10:55 AM 45.7 °F 41.5 °F 25.9 °F 46% 30.01 in 10.0 mi West 8.1 mph - N/A   Clear
11:15 AM 47.3 °F - 25.7 °F 43% 30.01 in 10.0 mi West 6.9 mph - N/A   Clear
11:35 AM 50.0 °F - 25.2 °F 38% 30.00 in 10.0 mi West 5.8 mph - N/A   Clear
11:55 AM 53.1 °F - 24.4 °F 33% 30.00 in 10.0 mi WSW 6.9 mph - N/A   Clear
12:15 PM 55.2 °F - 24.8 °F 31% 30.00 in 10.0 mi West 6.9 mph - N/A   Clear
12:35 PM 56.1 °F - 23.7 °F 29% 29.99 in 10.0 mi West 9.2 mph - N/A   Clear
12:55 PM 58.8 °F - 22.1 °F 24% 29.98 in 10.0 mi WNW 10.4 mph 16.1 mph N/A   Clear
1:15 PM 59.7 °F - 21.6 °F 23% 29.98 in 10.0 mi West 11.5 mph - N/A   Clear
1:35 PM 61.0 °F - 20.3 °F 21% 29.98 in 10.0 mi NNW 11.5 mph 17.3 mph N/A   Clear
1:55 PM 61.9 °F - 21.4 °F 21% 29.97 in 10.0 mi WNW 12.7 mph 17.3 mph N/A   Clear
2:15 PM 63.0 °F - 21.7 °F 21% 29.96 in 10.0 mi NW 11.5 mph 16.1 mph N/A   Clear
2:35 PM 63.3 °F - 20.5 °F 19% 29.95 in 10.0 mi West 10.4 mph - N/A   Clear
2:55 PM 64.4 °F - 19.6 °F 18% 29.93 in 10.0 mi NNW 6.9 mph 17.3 mph N/A   Clear
3:15 PM 64.4 °F - 18.7 °F 17% 29.92 in 10.0 mi NNW 6.9 mph - N/A   Clear
3:35 PM 65.1 °F - 19.8 °F 18% 29.92 in 10.0 mi West 11.5 mph 19.6 mph N/A   Clear
3:55 PM 65.1 °F - 19.4 °F 17% 29.92 in 10.0 mi WNW 10.4 mph 19.6 mph N/A   Clear
4:15 PM 65.7 °F - 19.2 °F 17% 29.92 in 10.0 mi WNW 10.4 mph - N/A   Clear
4:35 PM 65.5 °F - 19.6 °F 17% 29.92 in 10.0 mi West 9.2 mph 20.7 mph N/A   Clear
4:55 PM 65.7 °F - 18.7 °F 17% 29.91 in 10.0 mi West 6.9 mph - N/A   Clear
5:15 PM 66.0 °F - 19.4 °F 17% 29.90 in 10.0 mi NW 6.9 mph 11.5 mph N/A   Clear
5:35 PM 65.7 °F - 19.2 °F 17% 29.90 in 10.0 mi NW 11.5 mph - N/A   Clear
5:55 PM 65.7 °F - 18.9 °F 17% 29.90 in 10.0 mi NW 6.9 mph - N/A   Clear
6:15 PM 65.5 °F - 19.9 °F 18% 29.89 in 10.0 mi North 5.8 mph - N/A   Clear
6:35 PM 65.1 °F - 19.2 °F 17% 29.89 in 10.0 mi NW 6.9 mph - N/A   Clear
6:55 PM 63.5 °F - 19.4 °F 18% 29.89 in 10.0 mi NNW 3.5 mph - N/A   Clear
7:15 PM 61.9 °F - 21.9 °F 22% 29.89 in 10.0 mi Calm Calm - N/A   Clear
7:35 PM 58.8 °F - 23.9 °F 26% 29.89 in 10.0 mi NE 6.9 mph - N/A   Clear
7:55 PM 55.8 °F - 24.4 °F 30% 29.89 in 10.0 mi ENE 9.2 mph - N/A   Clear
8:15 PM 51.8 °F - 25.9 °F 37% 29.90 in 10.0 mi East 8.1 mph - N/A   Clear
8:35 PM 49.3 °F - 27.0 °F 42% 29.91 in 10.0 mi East 8.1 mph - N/A   Clear
8:55 PM 48.2 °F - 27.7 °F 45% 29.91 in 7.0 mi East 9.2 mph - N/A   Clear
9:15 PM 47.8 °F - 27.3 °F 45% 29.91 in 10.0 mi East 9.2 mph - N/A   Clear
9:35 PM 46.9 °F - 27.5 °F 47% 29.91 in 10.0 mi East 9.2 mph - N/A   Clear
9:55 PM 44.8 °F 40.4 °F 28.0 °F 52% 29.92 in 4.0 mi East 8.1 mph - N/A   Clear
10:15 PM 43.9 °F 39.3 °F 27.9 °F 53% 29.93 in 10.0 mi East 8.1 mph - N/A   Clear
10:35 PM 42.1 °F 37.1 °F 28.2 °F 58% 29.94 in 5.0 mi East 8.1 mph - N/A   Clear
10:55 PM 41.4 °F 36.8 °F 27.9 °F 59% 29.94 in 10.0 mi East 6.9 mph - N/A   Clear
11:15 PM 41.4 °F 35.2 °F 28.4 °F 60% 29.96 in 10.0 mi East 10.4 mph - N/A   Clear
11:35 PM 41.4 °F 35.7 °F 28.9 °F 61% 29.96 in 10.0 mi East 9.2 mph - N/A   Clear
11:55 PM 41.0 °F 35.2 °F 30.2 °F 65% 29.96 in 10.0 mi East 9.2 mph - N/A   Clear